Exeter, United Kingdom

7:13 PM GMT on February 22, 2017 (GMT +0000)
Exeter

Weather History for EGTE - July, 2013

Change the Weather History Date:

Thursday, July 25, 2013

  Actual Average Record
Temperature  
Mean Temperature 68 °F -  
Max Temperature 75 °F 68 °F 82 °F (2014)
Min Temperature 59 °F 53 °F 46 °F (1996)
Cooling Degree Days 2    
Growing Degree Days 18 (Base 50)    
Moisture  
Dew Point 59 °F    
Average Humidity 77    
Maximum Humidity 100    
Minimum Humidity 44    
Precipitation  
Precipitation 0.00 in - - ()
Sea Level Pressure  
Sea Level Pressure 29.88 in    
Wind  
Wind Speed 7 mph ()    
Max Wind Speed 13 mph    
Max Gust Speed -    
Visibility 5.9 miles    
Events Rain    
Averages and records for this station are not official NWS values.
T = Trace of Precipitation, MM = Missing Value Source: Averaged Metar Reports

Daily Weather History Graph

Daily Weather History Graph

Search for Another Location

Airport or City:

Trip Planner

Search our weather history database for the weather conditions in past years. The results will help you decide how hot, cold, wet, or windy it might be!

Date:

Astronomy

Jul. 25, 2013 Rise Set
Actual Time 5:30 AM BST 9:08 PM BST
Civil Twilight 4:49 AM BST 9:49 PM BST
Nautical Twilight 3:53 AM BST 10:45 PM BST
Astronomical Twilight 2:29 AM BST 12:07 AM BST
Moon 10:09 PM BST (7/25) 9:11 AM BST (7/25)
Length of Visible Light 17h 00m
Length of Day
15h 38m
Waning Gibbous, 90% of the Moon is Illuminated
Jul 25
Waning Gibbous
Jul 29
Last Quarter
Aug 6
New
Aug 14
First Quarter
Aug 21
Full

Hourly Weather History & Observations

Time (BST) Temp. Dew Point Humidity Pressure Visibility Wind Dir Wind Speed Gust Speed Precip Events Conditions
12:20 AM 62.6 °F 60.8 °F 94% 29.92 in 2.5 mi SSE 8.1 mph - N/A Rain Rain
12:50 AM 62 °F 60 °F 93%  in - Calm Calm - -  
12:50 AM 60.8 °F 60.8 °F 100% 29.89 in 3.7 mi SE 5.8 mph - N/A Rain Light Rain
1:20 AM 60.8 °F 60.8 °F 100% 29.89 in 3.7 mi SE 10.4 mph - N/A Rain Light Rain
1:50 AM 60.8 °F 60.8 °F 100% 29.89 in 2.5 mi SE 10.4 mph - N/A Rain Light Rain
3:50 AM 62 °F 61 °F 94%  in - Calm Calm - -  
5:20 AM 62.6 °F 62.6 °F 100% 29.83 in 5.0 mi South 6.9 mph - N/A   Scattered Clouds
5:50 AM 62.6 °F 62.6 °F 100% 29.86 in 6.2 mi SSW 6.9 mph - N/A   Partly Cloudy
6:20 AM 62.6 °F 62.6 °F 100% 29.86 in 6.2 mi SSW 4.6 mph - N/A   Partly Cloudy
6:50 AM 63 °F 62 °F 95%  in - Calm Calm - -  
6:50 AM 62.6 °F 62.6 °F 100% 29.86 in 6.2 mi South 5.8 mph - N/A   Scattered Clouds
7:20 AM 64.4 °F 62.6 °F 94% 29.86 in 6.2 mi South 6.9 mph - N/A   Scattered Clouds
7:50 AM 64.4 °F 62.6 °F 94% 29.86 in 6.2 mi South 8.1 mph - N/A   Scattered Clouds
8:20 AM 64.4 °F 62.6 °F 94% 29.86 in 6.2 mi South 9.2 mph - N/A   Partly Cloudy
8:50 AM 66.2 °F 62.6 °F 88% 29.86 in 6.2 mi South 8.1 mph - N/A   Scattered Clouds
9:20 AM 66.2 °F 60.8 °F 83% 29.86 in 6.2 mi SSW 9.2 mph - N/A   Scattered Clouds
9:50 AM 66 °F 60 °F 76%  in - Calm Calm - -  
9:50 AM 66.2 °F 60.8 °F 83% 29.86 in 6.2 mi SSW 9.2 mph - N/A   Scattered Clouds
10:20 AM 66.2 °F 60.8 °F 83% 29.86 in 6.2 mi South 6.9 mph - N/A   Scattered Clouds
10:50 AM 69.8 °F 60.8 °F 73% 29.86 in 6.2 mi SSW 5.8 mph - N/A   Scattered Clouds
11:20 AM 69.8 °F 60.8 °F 73% 29.86 in 6.2 mi SSW 6.9 mph - N/A   Scattered Clouds
11:50 AM 71.6 °F 60.8 °F 69% 29.86 in 6.2 mi South 11.5 mph - N/A   Scattered Clouds
12:20 PM 69.8 °F 62.6 °F 78% 29.86 in 6.2 mi South 12.7 mph - N/A   Scattered Clouds
12:50 PM 72 °F 62 °F 64%  in - Calm Calm - -  
12:50 PM 69.8 °F 62.6 °F 78% 29.89 in 6.2 mi South 12.7 mph - N/A   Scattered Clouds
1:20 PM 69.8 °F 60.8 °F 73% 29.89 in 6.2 mi South 6.9 mph - N/A   Scattered Clouds
1:50 PM 73.4 °F 59.0 °F 61% 29.89 in 6.2 mi Variable 3.5 mph - N/A   Scattered Clouds
2:20 PM 73.4 °F 57.2 °F 57% 29.86 in 6.2 mi WNW 9.2 mph - N/A   Scattered Clouds
2:50 PM 75.2 °F 53.6 °F 47% 29.86 in 6.2 mi West 6.9 mph - N/A   Scattered Clouds
3:20 PM 73.4 °F 55.4 °F 53% 29.86 in 6.2 mi West 8.1 mph - N/A   Scattered Clouds
3:50 PM 73 °F 56 °F 44%  in - Calm Calm - -  
3:50 PM 73.4 °F 55.4 °F 53% 29.86 in 6.2 mi West 9.2 mph - N/A   Scattered Clouds
4:20 PM 73.4 °F 57.2 °F 57% 29.89 in 6.2 mi WNW 9.2 mph - N/A   Scattered Clouds
4:50 PM 71.6 °F 57.2 °F 60% 29.89 in 6.2 mi West 5.8 mph - N/A   Scattered Clouds
5:20 PM 71.6 °F 57.2 °F 60% 29.89 in 6.2 mi WNW 5.8 mph - N/A   Scattered Clouds
5:50 PM 73.4 °F 57.2 °F 57% 29.86 in 6.2 mi West 9.2 mph - N/A   Scattered Clouds
6:20 PM 73.4 °F 57.2 °F 57% 29.89 in 6.2 mi West 6.9 mph - N/A   Partly Cloudy
6:50 PM 73.4 °F 57.2 °F 57% 29.89 in 6.2 mi WSW 9.2 mph - N/A   Scattered Clouds
7:20 PM 71.6 °F 55.4 °F 57% 29.89 in 6.2 mi SW 10.4 mph - N/A   Scattered Clouds
7:50 PM 69.8 °F 57.2 °F 64% 29.89 in 6.2 mi SW 11.5 mph - N/A   Scattered Clouds
8:20 PM 68.0 °F 57.2 °F 68% 29.89 in 6.2 mi SW 9.2 mph - N/A   Scattered Clouds
8:50 PM 66.2 °F 57.2 °F 73% 29.89 in 6.2 mi SW 9.2 mph - N/A   Scattered Clouds
9:20 PM 64.4 °F 57.2 °F 77% 29.92 in 6.2 mi West 5.8 mph - N/A   Scattered Clouds
9:50 PM 63 °F 56 °F 72%  in - Calm Calm - -  
9:50 PM 64.4 °F 57.2 °F 77% 29.92 in 6.2 mi West 4.6 mph - N/A   Scattered Clouds
10:20 PM 62.6 °F 57.2 °F 82% 29.92 in 6.2 mi SSW 2.3 mph - N/A   Scattered Clouds
10:50 PM 60.8 °F 57.2 °F 88% 29.92 in 6.2 mi South 3.5 mph - N/A   Scattered Clouds
11:20 PM 60.8 °F 57.2 °F 88% 29.92 in 6.2 mi SSW 3.5 mph - N/A   Scattered Clouds
11:50 PM 59.0 °F 57.2 °F 94% 29.92 in 6.2 mi South 5.8 mph - N/A   Scattered Clouds